Regional Weather Roundup
Issued by NWS

Home | Current Version | Previous Version | Graphics & Text | Print | Product List | Glossary On
Versions: 1 2 3 4 5 6 7 8 9 10 11 12 13 14 15 16 17 18 19 20 21 22 23 24 25 26 27
000
ASUS45 KCYS 230910
RWRWY

WYOMING REGIONAL WEATHER ROUNDUP
NATIONAL WEATHER SERVICE CHEYENNE WY
300 AM MDT SAT JUL 23 2016

NOTE:  "FAIR" INDICATES FEW OR NO CLOUDS BELOW 12,000 FEET
WITH NO SIGNIFICANT WEATHER AND/OR OBSTRUCTIONS TO VISIBILITY.

WYZ001-231000-
YELLOWSTONE NATIONAL PARK

CITY           SKY/WX    TMP DP  RH WIND       PRES   REMARKS
LK YELLOWSTONE   N/A     43  26  51 CALM      30.30R
W YELLOWSTONE  NOT AVBL

$$
WYZ002>013-054>058-071-098>099-231000-
NORTHERN WYOMING

CITY           SKY/WX    TMP DP  RH WIND       PRES   REMARKS
JACKSON        FAIR      52  27  37 SW8       30.21R
CODY           FAIR      68  37  32 N12G18    30.09R
GREYBULL       FAIR      75  43  31 W18       29.94S
WORLAND        FAIR      70  38  31 N9        29.98R
SHERIDAN       FAIR      71  43  36 NW33G40   30.00R
BUFFALO        FAIR      69  44  40 N33G47    30.01R
GILLETTE       FAIR      78  43  28 SW17      29.90F
HULETT         FAIR      77  55  47 S16G25    29.91S
NEWCASTLE      FAIR      72  50  46 SE12      29.97F

$$
WYZ014>020-022>026-101>103-231000-
CENTRAL WYOMING

CITY           SKY/WX    TMP DP  RH WIND       PRES   REMARKS
BIG PINEY      FAIR      54  22  28 N12       30.29R
PINEDALE       FAIR      46  37  71 NW6       30.29S
DUBOIS         FAIR      52  27  37 NW15      30.23F
LANDER         FAIR      73  39  29 SW13      30.07F
RIVERTON       FAIR      67  38  34 NW8       30.08F
CASPER         FAIR      70  44  39 SW13      30.05F
DOUGLAS          N/A    N/A N/A N/A MISG      30.03F

$$
WYZ021-027>030-104>119-231000-
SOUTHERN WYOMING

CITY           SKY/WX    TMP DP  RH WIND       PRES   REMARKS
EVANSTON       FAIR      65  30  27 N5        30.30F
KEMMERER         N/A     55  32  41 NW5       30.30F
FORT BRIDGER   FAIR      65  32  28 W10       30.31S
ROCK SPRINGS   FAIR      67  37  33 W14       30.24R
DIXON          FAIR      54  47  79 CALM      30.29S
RAWLINS        FAIR      69  40  34 SW12      30.22F
SARATOGA       FAIR      61  41  48 SE9       30.26F
LARAMIE        FAIR      58  44  60 S5        30.25F
CHEYENNE       FAIR      68  48  48 W7        30.16F
TORRINGTON     FAIR      66  61  84 N5        29.98F
PINE BLUFFS    FAIR      64  61  88 W3        30.08F

$$




USA.gov is the U.S. government's official web portal to all federal, state and local government web resources and services.